GW0413 Weather Reports


time (UTC)temp
C
wind
direction
speed
KPH
gust
KPH
rain 1hr
cm
rain 24hr
cm
rain mn
cm
humidity
%
barometer
mb
20260422024539 14 108 1.6 4.8 0.00 0.00 0.00 33 1019.4
20260422023030 14 133 0.0 8.0 0.00 0.00 0.00 32 1019.3
20260422021531 15 152 4.8 12.9 0.00 0.00 0.00 31 1019.3
20260422020030 15 187 4.8 11.3 0.00 0.00 0.00 31 1019.3
20260422014536 16 208 6.4 16.1 0.00 0.00 0.00 30 1019.3
20260422013028 17 202 6.4 14.5 0.00 0.00 0.00 30 1019.3
20260422011540 17 178 6.4 27.4 0.00 0.00 0.00 32 1019.4
20260422010049 18 227 9.7 19.3 0.00 0.00 0.00 29 1019.4
20260422004533 19 235 8.0 22.5 0.00 0.00 0.00 28 1019.5
20260422003028 20 205 8.0 22.5 0.00 0.00 0.00 28 1019.6
20260422001528 19 225 9.7 19.3 0.00 0.00 0.00 27 1019.6
20260422000029 20 236 12.9 22.5 0.00 0.00 0.00 25 1019.6
20260421234534 20 239 11.3 24.1 0.00 0.00 0.00 27 1019.6
20260421233029 20 202 12.9 27.4 0.00 0.00 0.00 25 1019.8
20260421231532 19 221 14.5 27.4 0.00 0.00 0.00 27 1019.9
20260421230028 19 238 12.9 27.4 0.00 0.00 0.00 28 1020.1
20260421224605 19 207 8.0 24.1 0.00 0.00 0.00 27 1020.2
20260421223027 19 246 6.4 20.9 0.00 0.00 0.00 25 1020.3
20260421221532 20 207 16.1 33.8 0.00 0.00 0.00 24 1020.5
20260421220032 19 154 8.0 22.5 0.00 0.00 0.00 26 1020.6
20260421214531 18 239 8.0 24.1 0.00 0.00 0.00 29 1020.9
20260421213028 18 172 11.3 19.3 0.00 0.00 0.00 27 1021.1
20260421211530 19 175 12.9 32.2 0.00 0.00 0.00 27 1021.2
20260421210030 17 286 8.0 17.7 0.00 0.00 0.00 29 1021.4
20260421204534 17 265 8.0 20.9 0.00 0.00 0.00 30 1021.6
20260421203026 18 209 6.4 17.7 0.00 0.00 0.00 27 1021.8
20260421201531 18 221 6.4 19.3 0.00 0.00 0.00 28 1021.9
20260421200028 17 161 6.4 16.1 0.00 0.00 0.00 29 1022.1
20260421194530 18 215 9.7 25.7 0.00 0.00 0.00 30 1022.3
20260421193029 19 360 6.4 20.9 0.00 0.00 0.00 30 1022.4
20260421191533 19 254 11.3 25.7 0.00 0.00 0.00 29 1022.6
20260421190028 18 191 6.4 14.5 0.00 0.00 0.00 29 1022.8
20260421184530 17 279 6.4 20.9 0.00 0.00 0.00 33 1023.1
20260421183032 18 313 11.3 25.7 0.00 0.00 0.00 29 1023.4
20260421181527 18 273 14.5 27.4 0.00 0.00 0.00 31 1023.6
20260421180034 17 296 11.3 19.3 0.00 0.00 0.00 31 1023.6
20260421174535 18 256 9.7 16.1 0.00 0.00 0.00 32 1023.7
20260421173030 18 191 6.4 12.9 0.00 0.00 0.00 29 1023.9
20260421171530 17 227 3.2 12.9 0.00 0.00 0.00 31 1023.9
20260421170037 17 255 11.3 20.9 0.00 0.00 0.00 32 1023.9
20260421164527 17 224 6.4 19.3 0.00 0.00 0.00 30 1024.1
20260421163027 16 248 4.8 20.9 0.00 0.00 0.00 30 1024.1
20260421161549 16 306 8.0 17.7 0.00 0.00 0.00 30 1024.1
20260421160036 16 221 6.4 12.9 0.00 0.00 0.00 33 1024.0
20260421154535 16 209 6.4 11.3 0.00 0.00 0.00 34 1023.8
20260421153029 16 190 3.2 9.7 0.00 0.00 0.00 32 1023.7
20260421151542 15 239 1.6 9.7 0.00 0.00 0.00 33 1023.7
20260421150028 15 252 3.2 8.0 0.00 0.00 0.00 35 1023.8
20260421144530 13 80 3.2 6.4 0.00 0.00 0.00 40 1023.7
20260421143036 12 18 3.2 4.8 0.00 0.00 0.00 45 1023.6
20260421141529 11 303 3.2 9.7 0.00 0.00 0.00 44 1023.5
20260421140037 12 0 1.6 6.4 0.00 0.00 0.00 42 1023.4
20260421134530 11 46 6.4 16.1 0.00 0.00 0.00 44 1023.2
20260421133027 9 36 12.9 19.3 0.00 0.00 0.00 47 1022.8
20260421131530 8 45 16.1 20.9 0.00 0.00 0.00 48 1022.7
20260421130035 7 51 16.1 20.9 0.00 0.00 0.00 50 1022.8
20260421124532 6 57 14.5 17.7 0.00 0.00 0.00 50 1022.7
20260421123028 6 54 16.1 22.5 0.00 0.00 0.00 48 1022.7
20260421121530 7 29 19.3 24.1 0.00 0.00 0.00 47 1022.7
20260421120028 6 35 17.7 22.5 0.00 0.00 0.00 50 1022.9
20260421114530 6 64 11.3 19.3 0.00 0.00 0.00 49 1023.0
20260421113030 4 28 14.5 17.7 0.00 0.00 0.00 54 1023.3
20260421111529 5 41 6.4 9.7 0.00 0.00 0.00 51 1023.3
20260421110026 6 70 6.4 16.1 0.00 0.00 0.00 47 1023.3
20260421104537 6 34 11.3 17.7 0.00 0.00 0.00 47 1023.2
20260421103026 5 31 8.0 17.7 0.00 0.00 0.00 47 1023.3
20260421101527 6 40 16.1 22.5 0.00 0.00 0.00 46 1023.1
20260421100027 4 51 11.3 16.1 0.00 0.00 0.00 50 1023.1
20260421094527 7 37 6.4 11.3 0.00 0.00 0.00 43 1023.0
20260421093033 6 334 6.4 14.5 0.00 0.00 0.00 44 1022.8
20260421091529 6 43 11.3 16.1 0.00 0.00 0.00 44 1022.5
20260421090028 6 44 11.3 16.1 0.00 0.00 0.00 44 1022.5
20260421084529 6 61 9.7 17.7 0.00 0.00 0.00 45 1022.6
20260421083036 6 31 16.1 19.3 0.00 0.00 0.00 46 1022.6
20260421081530 6 33 14.5 17.7 0.00 0.00 0.00 45 1022.6
20260421080034 6 18 12.9 17.7 0.00 0.00 0.00 46 1022.6
20260421074530 6 33 12.9 17.7 0.00 0.00 0.00 44 1022.7
20260421073029 7 17 12.9 16.1 0.00 0.00 0.00 43 1022.8
20260421071530 6 65 8.0 16.1 0.00 0.00 0.00 45 1022.8
20260421070032 7 34 8.0 14.5 0.00 0.00 0.00 44 1022.8
20260421064531 7 36 12.9 17.7 0.00 0.00 0.00 44 1022.7
20260421063029 7 24 14.5 19.3 0.00 0.00 0.00 43 1022.7
20260421061528 7 28 12.9 16.1 0.00 0.00 0.00 44 1022.5
20260421060028 7 58 8.0 17.7 0.00 0.00 0.00 43 1022.6
20260421054530 7 28 14.5 19.3 0.00 0.00 0.00 43 1022.5
20260421053032 7 29 14.5 17.7 0.00 0.00 0.00 45 1022.6
20260421051530 7 38 14.5 20.9 0.00 0.00 0.00 44 1022.6
20260421050039 7 34 14.5 19.3 0.00 0.00 0.00 45 1022.7
20260421044531 7 38 16.1 20.9 0.00 0.00 0.00 46 1022.7
20260421043028 7 55 11.3 14.5 0.00 0.00 0.00 47 1022.7
20260421041532 6 66 8.0 14.5 0.00 0.00 0.00 51 1022.6
20260421040027 6 37 12.9 16.1 0.00 0.00 0.00 52 1022.5
20260421034602 6 28 12.9 16.1 0.00 0.00 0.00 51 1022.3
20260421033028 7 29 6.4 14.5 0.00 0.00 0.00 47 1022.2
20260421031535 8 42 8.0 14.5 0.00 0.00 0.00 44 1022.0
20260421030040 8 31 11.3 16.1 0.00 0.00 0.00 45 1021.9